EW1134 Oinofyta GR current weather conditions

sailwx.info

Wind from 276 at 3 knots gusting 11

Air temperature 31.7° C
Dewpoint 8.0° C

Last reported at 2020-Sep-25 13:10 UTC.
Time now 2020-Sep-25 14:17 UTC

Location: N 38°19' E 023°39'.
View on Google Maps.

See reports from other nearby stations

  
Tides and Currents Weather Stations Pressure Air Temp Water Temp Dewpoint Dewpoint Depression Visibility Wind Speed Wind Dir Waves Ship Positions
date/time (UTC)wind fromknots sea level pressurealtimeterstation pressurevisibilityair tempwater tempwave heightnotes
2020-Sep-25 13:55 288 4 gusting 13 31.1
2020-Sep-25 13:50 304 3 gusting 9 31.1
2020-Sep-25 13:45 306 4 gusting 16 31.1
2020-Sep-25 13:40 312 6 gusting 16 31.1
2020-Sep-25 13:35 306 6 gusting 15 31.1
2020-Sep-25 13:25 274 4 gusting 13 31.7
2020-Sep-25 13:20 294 4 gusting 13 31.7
2020-Sep-25 13:15 302 3 gusting 12 31.7
2020-Sep-25 13:10 276 3 gusting 11 31.7
2020-Sep-25 13:05 280 3 gusting 11 31.7
2020-Sep-25 13:00 288 3 gusting 11 31.7
2020-Sep-25 12:55 286 4 gusting 11 31.7
2020-Sep-25 12:50 295 4 gusting 11 31.7
2020-Sep-25 12:45 306 3 gusting 11 31.7
2020-Sep-25 12:40 305 3 gusting 11 31.7
2020-Sep-25 12:35 281 2 gusting 10 31.7
2020-Sep-25 12:30 280 2 gusting 10 31.7
2020-Sep-25 12:25 323 2 gusting 10 31.7
2020-Sep-25 12:20 005 3 gusting 10 31.7
2020-Sep-25 12:15 043 4 gusting 11 30.6
2020-Sep-25 12:10 053 5 gusting 11 30.6
2020-Sep-25 12:05 042 4 gusting 10 31.1
2020-Sep-25 12:00 020 3 gusting 11 31.1
2020-Sep-25 11:55 354 3 gusting 11 31.1
2020-Sep-25 11:50 009 3 gusting 11 31.1
2020-Sep-25 11:45 053 3 gusting 11 30.6
2020-Sep-25 11:35 081 3 gusting 8 30.6
2020-Sep-25 11:25 048 1 gusting 5 30.6
2020-Sep-25 11:20 017 2 gusting 8 30.6
2020-Sep-25 11:15 022 4 gusting 8 30.6
2020-Sep-25 11:10 032 3 gusting 8 30.6
2020-Sep-25 11:05 037 2 gusting 6 30.6
2020-Sep-25 10:55 349 3 gusting 8 30.6
2020-Sep-25 10:50 332 4 gusting 10 30.0
2020-Sep-25 10:40 014 4 gusting 9 30.0
2020-Sep-25 10:35 052 4 gusting 9 30.0
2020-Sep-25 10:25 055 2 gusting 8 30.0
2020-Sep-25 10:20 026 1 gusting 5 30.0
2020-Sep-25 10:15 009 2 gusting 8 30.0
2020-Sep-25 10:10 021 4 gusting 8 30.0
2020-Sep-25 10:05 020 4 gusting 8 30.0
2020-Sep-25 09:55 061 3 gusting 7 29.4
2020-Sep-25 09:50 053 3 gusting 6 29.4
2020-Sep-25 09:45 354 3 gusting 8 29.4
2020-Sep-25 09:40 010 3 gusting 10 29.4
2020-Sep-25 09:35 034 3 gusting 10 29.4
2020-Sep-25 09:25 349 2 gusting 10 28.9
2020-Sep-25 09:20 349 2 gusting 10 28.9
2020-Sep-25 09:15 101 1 gusting 6 28.9
2020-Sep-25 09:10 006 1 gusting 6 28.9
2020-Sep-25 09:05 307 1 gusting 6 28.9
2020-Sep-25 08:55 295 0 gusting 3 28.3
2020-Sep-25 08:50 228 1 gusting 6 28.3
2020-Sep-25 08:40 208 1 gusting 5 28.3
2020-Sep-25 08:35 183 1 gusting 6 27.8
2020-Sep-25 08:25 172 1 gusting 5 27.2
2020-Sep-25 08:20 342 0 gusting 3 27.8
2020-Sep-25 08:15 258 1 gusting 6 27.8
2020-Sep-25 08:10 248 1 gusting 6 27.2
2020-Sep-25 08:05 235 0 gusting 5 27.2
2020-Sep-25 07:55 217 0 gusting 3 26.7
2020-Sep-25 07:50 290 0 gusting 3 26.7
2020-Sep-25 07:40 304 1 gusting 4 26.7
2020-Sep-25 07:35 297 1 gusting 3 26.1
2020-Sep-25 07:30 260 0 gusting 3 25.6
2020-Sep-25 07:25 270 0 gusting 3 25.6
2020-Sep-25 07:20 255 1 gusting 3 25.0
2020-Sep-25 07:15 208 0 gusting 3 25.0
2020-Sep-25 07:10 142 0 gusting 3 24.4
2020-Sep-25 07:00 248 0 gusting 3 23.9
2020-Sep-25 06:55 262 0 gusting 4 23.9
2020-Sep-25 06:50 250 0 gusting 4 23.9
2020-Sep-25 06:45 260 0 gusting 4 23.3
2020-Sep-25 06:40 254 0 gusting 3 23.3
2020-Sep-25 06:35 229 0 gusting 3 22.8
2020-Sep-25 06:25 242 0 gusting 3 22.2
2020-Sep-25 06:20 233 1 gusting 3 21.7
2020-Sep-25 06:10 206 0 gusting 3 21.1
2020-Sep-25 06:05 214 21.1
2020-Sep-25 05:55 220 0 gusting 3 20.6
2020-Sep-25 05:50 239 0 gusting 3 20.6
2020-Sep-25 05:45 255 0 gusting 3 20.6
2020-Sep-25 05:40 251 0 gusting 3 20.6
2020-Sep-25 05:35 243 0 gusting 2 20.0
2020-Sep-25 05:25 228 19.4
2020-Sep-25 05:20 238 19.4
2020-Sep-25 05:15 215 18.9
2020-Sep-25 05:10 199 0 gusting 2 18.3
2020-Sep-25 05:05 200 18.3
2020-Sep-25 04:55 246 18.3
2020-Sep-25 04:50 193 18.3
2020-Sep-25 04:40 204 18.3
2020-Sep-25 04:35 238 17.8
2020-Sep-25 04:25 184 0 gusting 3 18.3
2020-Sep-25 04:20 202 17.8
2020-Sep-25 04:10 146 0 gusting 3 17.8
2020-Sep-25 04:05 193 0 gusting 3 18.3
2020-Sep-25 03:55 273 18.3
2020-Sep-25 03:50 303 18.3
2020-Sep-25 03:40 293 0 gusting 2 18.3
2020-Sep-25 03:35 280 0 gusting 3 18.3
2020-Sep-25 03:30 276 0 gusting 3 17.8
2020-Sep-25 03:25 256 1 gusting 3 17.8
2020-Sep-25 03:20 243 1 gusting 3 17.8
2020-Sep-25 03:10 225 1 gusting 4 18.3
2020-Sep-25 03:05 243 1 gusting 3 18.3
2020-Sep-25 02:55 247 0 gusting 3 18.9
2020-Sep-25 02:50 259 0 gusting 3 18.9
2020-Sep-25 02:45 248 0 gusting 3 18.9
2020-Sep-25 02:40 231 0 gusting 3 18.9
2020-Sep-25 02:35 264 18.9
2020-Sep-25 02:25 259 18.9
2020-Sep-25 02:20 235 18.9
2020-Sep-25 02:10 255 18.9
2020-Sep-25 02:05 240 18.9
2020-Sep-25 01:55 248 0 gusting 2 18.9
2020-Sep-25 01:50 268 18.9
2020-Sep-25 01:45 250 18.9
2020-Sep-25 01:40 225 0 gusting 2 18.9
2020-Sep-25 01:35 211 18.9
2020-Sep-25 01:25 220 0 gusting 3 18.9
2020-Sep-25 01:20 209 1 gusting 3 18.9
2020-Sep-25 01:10 224 1 gusting 3 18.9
2020-Sep-25 01:05 217 0 gusting 3 19.4
2020-Sep-25 00:55 224 0 gusting 3 20.0
2020-Sep-25 00:50 231 0 gusting 3 20.0
2020-Sep-25 00:40 224 0 gusting 3 20.0
2020-Sep-25 00:35 225 0 gusting 3 20.0
2020-Sep-25 00:30 233 0 gusting 3 20.6
2020-Sep-25 00:25 263 20.6
2020-Sep-25 00:20 260 20.6
2020-Sep-25 00:10 253 0 gusting 3 20.6
2020-Sep-25 00:05 230 1 gusting 3 20.6
2020-Sep-25 00:00 223 1 gusting 3 20.6
2020-Sep-24 23:55 223 0 gusting 3 21.1
2020-Sep-24 23:50 229 0 gusting 3 21.1
2020-Sep-24 23:40 257 0 gusting 3 20.6
2020-Sep-24 23:35 263 0 gusting 3 20.6
2020-Sep-24 23:25 220 0 gusting 3 20.6
2020-Sep-24 23:20 223 0 gusting 3 20.6
2020-Sep-24 23:10 229 0 gusting 3 21.1
2020-Sep-24 23:05 223 0 gusting 2 21.1
2020-Sep-24 23:00 214 0 gusting 3 21.1
2020-Sep-24 22:55 219 0 gusting 3 21.1
2020-Sep-24 22:45 248 0 gusting 3 21.7
2020-Sep-24 22:40 251 0 gusting 3 21.1
2020-Sep-24 22:35 265 0 gusting 3 21.1
2020-Sep-24 22:25 246 0 gusting 3 21.1
2020-Sep-24 22:20 239 0 gusting 3 21.7
2020-Sep-24 22:10 232 1 gusting 4 21.7
2020-Sep-24 22:05 248 0 gusting 3 21.7
2020-Sep-24 21:55 247 1 gusting 4 22.2
2020-Sep-24 21:50 255 0 gusting 5 22.2
2020-Sep-24 21:40 250 0 gusting 3 22.2
2020-Sep-24 21:35 245 0 gusting 3 22.2
2020-Sep-24 21:25 254 22.2
2020-Sep-24 21:15 291 0 gusting 2 22.2
2020-Sep-24 21:10 249 0 gusting 3 22.8
2020-Sep-24 21:05 256 1 gusting 5 22.8
2020-Sep-24 20:55 228 2 gusting 6 22.8
2020-Sep-24 20:50 216 2 gusting 6 22.8
2020-Sep-24 20:45 215 1 gusting 5 22.8
2020-Sep-24 20:40 220 1 gusting 5 23.3
2020-Sep-24 20:35 243 1 gusting 5 22.8
2020-Sep-24 20:25 228 0 gusting 4 22.8
2020-Sep-24 20:20 220 1 gusting 5 22.8
2020-Sep-24 20:10 201 0 gusting 3 22.8
2020-Sep-24 20:05 207 0 gusting 3 23.3
2020-Sep-24 19:55 279 0 gusting 3 23.3
2020-Sep-24 19:50 284 0 gusting 3 23.3
2020-Sep-24 19:45 249 0 gusting 3 23.3
2020-Sep-24 19:40 219 1 gusting 4 23.3
2020-Sep-24 19:35 215 1 gusting 4 23.3
2020-Sep-24 19:25 109 22.8
2020-Sep-24 19:20 032 22.8
2020-Sep-24 19:10 128 0 gusting 3 23.9
2020-Sep-24 19:05 162 1 gusting 3 24.4
2020-Sep-24 18:55 234 1 gusting 3 25.0
2020-Sep-24 18:50 237 0 gusting 3 25.0
2020-Sep-24 18:45 247 0 gusting 3 24.4
2020-Sep-24 18:40 244 0 gusting 3 25.0
2020-Sep-24 18:35 211 0 gusting 3 25.0
2020-Sep-24 18:30 193 0 gusting 3 25.0
2020-Sep-24 18:25 210 0 gusting 4 25.0
2020-Sep-24 18:20 239 0 gusting 4 25.0
2020-Sep-24 18:10 190 25.0
2020-Sep-24 18:05 126 0 gusting 2 24.4
2020-Sep-24 17:55 120 24.4
2020-Sep-24 17:50 097 24.4
2020-Sep-24 17:40 152 0 gusting 2 25.6
2020-Sep-24 17:35 183 25.6
2020-Sep-24 17:30 212 25.6
2020-Sep-24 17:25 255 0 gusting 3 25.6
2020-Sep-24 17:20 282 0 gusting 2 25.6
2020-Sep-24 17:15 264 0 gusting 3 25.6
2020-Sep-24 17:10 265 0 gusting 3 25.6
2020-Sep-24 17:05 285 0 gusting 3 26.1
2020-Sep-24 16:55 279 1 gusting 6 26.1
2020-Sep-24 16:50 286 0 gusting 3 26.1
2020-Sep-24 16:45 276 1 gusting 3 26.7
2020-Sep-24 16:40 275 1 gusting 5 26.7
2020-Sep-24 16:35 283 1 gusting 6 26.7
2020-Sep-24 16:25 268 0 gusting 6 26.7
2020-Sep-24 16:20 293 26.7
2020-Sep-24 16:10 116 26.7
2020-Sep-24 16:05 181 26.7
2020-Sep-24 15:55 265 27.2
2020-Sep-24 15:50 338 27.2
2020-Sep-24 15:40 010 0 gusting 3 27.8
2020-Sep-24 15:35 003 0 gusting 3 27.8
2020-Sep-24 15:25 040 1 gusting 3 27.8
2020-Sep-24 15:20 033 0 gusting 4 27.8
2020-Sep-24 15:10 022 1 gusting 3 27.8
2020-Sep-24 15:05 357 1 gusting 3 27.8
2020-Sep-24 14:55 359 1 gusting 3 27.8
2020-Sep-24 14:50 010 0 gusting 3 27.8
2020-Sep-24 14:45 011 0 gusting 4 27.8
2020-Sep-24 14:35 041 1 gusting 5 28.3
2020-Sep-24 14:25 052 3 gusting 6 28.3
2020-Sep-24 14:20 066 3 gusting 6 28.3
2020-Sep-24 14:15 035 3 gusting 6 28.3
2020-Sep-24 14:10 048 3 gusting 6 28.3
2020-Sep-24 14:05 057 3 gusting 6 28.3
2020-Sep-24 13:55 018 4 gusting 8 28.3
2020-Sep-24 13:50 027 3 gusting 8 28.3
2020-Sep-24 13:40 352 2 gusting 6 27.2
2020-Sep-24 13:30 351 2 gusting 6 27.8
2020-Sep-24 13:25 358 1 gusting 5 27.8
2020-Sep-24 13:05 025 2 gusting 6 27.8
2020-Sep-24 13:00 032 2 gusting 6 27.8
2020-Sep-24 12:55 030 2 gusting 6 27.8
2020-Sep-24 12:50 025 2 gusting 7 28.3
2020-Sep-24 12:45 020 3 gusting 7 28.3
2020-Sep-24 12:35 015 3 gusting 8 28.9
2020-Sep-24 12:25 003 3 gusting 7 28.9
2020-Sep-24 12:20 001 4 gusting 11 28.9
2020-Sep-24 12:10 012 3 gusting 9 28.3
2020-Sep-24 12:05 024 5 gusting 11 28.3
2020-Sep-24 11:55 022 6 gusting 11 28.9
2020-Sep-24 11:50 032 4 gusting 11 28.9
2020-Sep-24 11:45 025 3 gusting 7 28.9
2020-Sep-24 11:40 029 4 gusting 9 28.3
2020-Sep-24 11:35 024 4 gusting 10 28.9
2020-Sep-24 11:25 048 2 gusting 7 28.9
2020-Sep-24 11:20 051 2 gusting 7 28.9
2020-Sep-24 11:10 026 2 gusting 7 28.9
2020-Sep-24 11:05 322 0 gusting 6 28.9
2020-Sep-24 10:55 318 1 gusting 5 29.4
2020-Sep-24 10:50 337 2 gusting 7 28.9
2020-Sep-24 10:45 355 2 gusting 7 28.9
2020-Sep-24 10:40 045 1 gusting 5 28.9
2020-Sep-24 10:35 344 2 gusting 6 28.9
2020-Sep-24 10:25 017 3 gusting 8 28.3
2020-Sep-24 10:20 015 3 gusting 8 28.3
2020-Sep-24 10:10 030 3 gusting 8 27.8
2020-Sep-24 10:05 024 2 gusting 7 27.8
2020-Sep-24 10:00 030 2 gusting 6 27.2
2020-Sep-24 09:55 029 2 gusting 6 27.2
2020-Sep-24 09:50 002 1 gusting 6 27.8
2020-Sep-24 09:45 301 1 gusting 6 27.2
2020-Sep-24 09:40 345 1 gusting 6 27.8
2020-Sep-24 09:35 162 1 gusting 6 27.2
2020-Sep-24 09:25 240 2 gusting 8 27.2
2020-Sep-24 09:20 214 2 gusting 8 27.2
2020-Sep-24 09:15 199 2 gusting 8 27.2
2020-Sep-24 09:10 210 1 gusting 7 27.2
2020-Sep-24 09:05 192 0 gusting 4 27.2
2020-Sep-24 09:00 196 1 gusting 8 26.7
2020-Sep-24 08:55 206 3 gusting 8 26.7
2020-Sep-24 08:50 216 3 gusting 8 26.7
2020-Sep-24 08:45 207 1 gusting 8 26.7
2020-Sep-24 08:40 206 0 gusting 4 26.1
2020-Sep-24 08:35 221 1 gusting 4 26.1
2020-Sep-24 08:30 200 1 gusting 4 25.6
2020-Sep-24 08:25 229 0 gusting 6 25.6
2020-Sep-24 08:20 332 0 gusting 6 25.6
2020-Sep-24 08:10 336 2 gusting 7 25.6
2020-Sep-24 08:05 320 2 gusting 7 25.6
2020-Sep-24 07:55 312 1 gusting 4 25.0
2020-Sep-24 07:50 291 1 gusting 6 25.0
2020-Sep-24 07:45 294 1 gusting 6 25.0
2020-Sep-24 07:40 307 1 gusting 5 25.0
2020-Sep-24 07:35 309 1 gusting 5 25.0
2020-Sep-24 07:30 300 1 gusting 4 24.4
2020-Sep-24 07:25 273 1 gusting 4 23.9
2020-Sep-24 07:20 271 0 gusting 4 23.9
2020-Sep-24 07:10 272 0 gusting 4 22.8
2020-Sep-24 07:05 278 0 gusting 4 22.8
2020-Sep-24 07:00 254 0 gusting 3 22.8
2020-Sep-24 06:55 234 1 gusting 5 22.2
2020-Sep-24 06:50 248 1 gusting 5 22.2
2020-Sep-24 06:40 283 0 gusting 4 22.2
2020-Sep-24 06:35 270 0 gusting 3 22.2
2020-Sep-24 06:25 222 1 gusting 3 21.7
2020-Sep-24 06:20 243 0 gusting 3 21.7
2020-Sep-24 06:15 283 21.7
2020-Sep-24 06:10 260 21.7
2020-Sep-24 06:05 253 0 gusting 3 21.7
2020-Sep-24 06:00 257 0 gusting 3 21.7
2020-Sep-24 05:55 267 0 gusting 3 21.7
2020-Sep-24 05:50 257 0 gusting 3 21.7
2020-Sep-24 05:45 267 0 gusting 3 21.7
2020-Sep-24 05:40 287 1 gusting 3 21.7
2020-Sep-24 05:35 299 1 gusting 3 21.7
2020-Sep-24 05:25 284 21.1
2020-Sep-24 05:20 271 0 gusting 2 20.6
2020-Sep-24 05:10 303 20.0
2020-Sep-24 05:05 254 20.0
2020-Sep-24 04:55 243 0 gusting 3 20.0
2020-Sep-24 04:50 236 0 gusting 3 20.0
2020-Sep-24 04:45 239 0 gusting 3 20.0
2020-Sep-24 04:40 232 1 gusting 3 20.0
2020-Sep-24 04:35 244 0 gusting 3 20.6
2020-Sep-24 04:25 260 0 gusting 3 20.6
2020-Sep-24 04:20 275 0 gusting 3 20.6
2020-Sep-24 04:15 270 0 gusting 3 20.6
2020-Sep-24 04:10 279 0 gusting 3 20.0
2020-Sep-24 04:05 286 0 gusting 3 20.0
2020-Sep-24 04:00 271 0 gusting 3 20.0
2020-Sep-24 03:55 283 0 gusting 3 20.0
2020-Sep-24 03:50 311 20.0
2020-Sep-24 03:40 287 0 gusting 3 20.0
2020-Sep-24 03:35 265 0 gusting 3 20.6
2020-Sep-24 03:30 274 0 gusting 3 20.6
2020-Sep-24 03:25 307 0 gusting 3 20.0
2020-Sep-24 03:20 299 0 gusting 3 20.0
2020-Sep-24 03:10 207 0 gusting 3 20.6
2020-Sep-24 03:00 249 0 gusting 4 20.6
2020-Sep-24 02:55 305 0 gusting 6 20.6
2020-Sep-24 02:50 319 1 gusting 6 20.6
2020-Sep-24 02:40 293 0 gusting 4 20.6
2020-Sep-24 02:35 264 0 gusting 4 20.6
2020-Sep-24 02:30 238 0 gusting 3 20.6
2020-Sep-24 02:25 256 0 gusting 4 20.6
2020-Sep-24 02:20 276 1 gusting 5 20.6
2020-Sep-24 02:15 299 1 gusting 5 20.6
2020-Sep-24 02:10 297 0 gusting 4 20.6
2020-Sep-24 02:05 261 0 gusting 3 20.6
2020-Sep-24 01:55 243 0 gusting 2 20.6
2020-Sep-24 01:50 030 20.6
2020-Sep-24 01:45 080 20.6
2020-Sep-24 01:40 007 20.6
2020-Sep-24 01:35 247 0 gusting 3 20.6
2020-Sep-24 01:30 230 0 gusting 3 20.6
2020-Sep-24 01:25 252 20.0
2020-Sep-24 01:15 223 1 gusting 4 20.0
2020-Sep-24 01:10 236 1 gusting 4 20.6
2020-Sep-24 01:05 234 1 gusting 4 21.1
2020-Sep-24 00:55 230 0 gusting 3 21.7
2020-Sep-24 00:50 229 21.7
2020-Sep-24 00:40 132 21.1
2020-Sep-24 00:35 069 0 gusting 3 21.1
2020-Sep-24 00:25 060 21.7
2020-Sep-24 00:15 209 22.2
2020-Sep-24 00:10 231 0 gusting 3 22.2
2020-Sep-24 00:05 266 22.2
2020-Sep-23 23:55 319 0 gusting 3 21.7
2020-Sep-23 23:50 312 21.1
2020-Sep-23 23:45 340 0 gusting 2 21.1
2020-Sep-23 23:40 344 0 gusting 2 21.1
2020-Sep-23 23:35 311 20.6
2020-Sep-23 23:25 205 1 gusting 4 21.1
2020-Sep-23 23:20 212 1 gusting 4 21.1
2020-Sep-23 23:10 310 20.6
2020-Sep-23 23:05 331 20.6
2020-Sep-23 22:55 333 0 gusting 3 20.6
2020-Sep-23 22:50 308 0 gusting 3 20.6
2020-Sep-23 22:45 228 20.6
2020-Sep-23 22:40 256 20.6
2020-Sep-23 22:35 232 0 gusting 2 20.6
2020-Sep-23 22:30 173 0 gusting 2 20.6
2020-Sep-23 22:25 138 0 gusting 2 20.6
2020-Sep-23 22:20 027 20.6
2020-Sep-23 22:10 323 20.6
2020-Sep-23 22:05 188 20.6
2020-Sep-23 22:00 137 0 gusting 2 20.6
2020-Sep-23 21:55 110 0 gusting 2 20.6
2020-Sep-23 21:50 093 0 gusting 3 20.6
2020-Sep-23 21:45 068 0 gusting 3 20.6
2020-Sep-23 21:40 042 0 gusting 3 21.1
2020-Sep-23 21:30 052 0 gusting 3 21.1
2020-Sep-23 21:25 127 0 gusting 2 21.1
2020-Sep-23 21:20 135 0 gusting 2 21.1
2020-Sep-23 21:15 165 0 gusting 2 21.1
2020-Sep-23 21:10 216 0 gusting 3 21.1
2020-Sep-23 21:05 213 0 gusting 3 21.1
2020-Sep-23 21:00 215 0 gusting 3 21.1
2020-Sep-23 20:55 226 0 gusting 3 21.1
2020-Sep-23 20:50 207 1 gusting 4 21.1
2020-Sep-23 20:45 205 1 gusting 4 21.7
2020-Sep-23 20:35 299 21.7
2020-Sep-23 20:30 335 21.1
2020-Sep-23 20:25 225 0 gusting 2 21.1
2020-Sep-23 20:20 233 1 gusting 3 21.1
2020-Sep-23 20:15 226 1 gusting 3 21.1
2020-Sep-23 20:10 211 2 gusting 4 21.1
2020-Sep-23 20:05 211 2 gusting 4 21.1
2020-Sep-23 19:55 239 0 gusting 3 21.1
2020-Sep-23 19:50 227 1 gusting 3 21.1
2020-Sep-23 19:40 206 1 gusting 4 21.7
2020-Sep-23 19:35 208 0 gusting 3 21.7
2020-Sep-23 19:25 099 22.2
2020-Sep-23 19:15 232 1 gusting 3 22.2
2020-Sep-23 19:10 240 0 gusting 3 22.8
2020-Sep-23 19:00 311 22.2
2020-Sep-23 18:55 266 22.2
2020-Sep-23 18:50 247 0 gusting 3 22.2
2020-Sep-23 18:45 239 0 gusting 3 22.2
2020-Sep-23 18:40 235 22.2
2020-Sep-23 18:35 214 0 gusting 3 22.8
2020-Sep-23 18:25 225 0 gusting 3 22.8
2020-Sep-23 18:20 231 1 gusting 3 22.8
2020-Sep-23 18:10 215 0 gusting 3 22.8
2020-Sep-23 18:05 167 0 gusting 2 23.3
2020-Sep-23 18:00 112 0 gusting 3 23.3
2020-Sep-23 17:55 090 1 gusting 3 23.3
2020-Sep-23 17:50 087 0 gusting 3 23.3
2020-Sep-23 17:45 073 0 gusting 3 23.3
2020-Sep-23 17:35 052 0 gusting 3 23.3
2020-Sep-23 17:25 346 1 gusting 4 23.9
2020-Sep-23 17:20 359 1 gusting 5 23.9
2020-Sep-23 17:15 022 1 gusting 5 23.9
2020-Sep-23 17:10 004 1 gusting 5 23.9
2020-Sep-23 17:05 328 1 gusting 3 23.9
2020-Sep-23 17:00 333 0 gusting 3 24.4
2020-Sep-23 16:55 009 24.4
2020-Sep-23 16:50 324 24.4
2020-Sep-23 16:40 333 0 gusting 2 25.0
2020-Sep-23 16:35 336 0 gusting 2 25.0
2020-Sep-23 16:25 052 0 gusting 3 25.6
2020-Sep-23 16:20 093 0 gusting 3 25.6
2020-Sep-23 16:10 072 0 gusting 3 25.6
2020-Sep-23 16:05 058 1 gusting 4 25.6
2020-Sep-23 15:55 056 1 gusting 4 25.6
2020-Sep-23 15:50 047 1 gusting 4 25.6
2020-Sep-23 15:45 061 2 gusting 6 26.1
2020-Sep-23 15:40 059 3 gusting 6 26.1
2020-Sep-23 15:35 055 2 gusting 6 26.1
2020-Sep-23 15:25 060 3 gusting 9 26.1
2020-Sep-23 15:20 045 4 gusting 9 26.7
2020-Sep-23 15:10 018 3 gusting 8 27.2
2020-Sep-23 15:05 008 3 gusting 8 27.2
2020-Sep-23 15:00 354 3 gusting 7 27.2
2020-Sep-23 14:55 005 3 gusting 7 27.2
2020-Sep-23 14:50 013 3 gusting 7 27.2
2020-Sep-23 14:35 039 3 gusting 8 27.2
2020-Sep-23 14:25 065 3 gusting 6 27.8
2020-Sep-23 14:20 055 4 gusting 10 27.8
2020-Sep-23 14:10 046 4 gusting 9 27.8
2020-Sep-23 14:05 041 3 gusting 9 28.3